Weather in Lake Ozark

United States     38°11′55″N   92°38′17″W
temp.,
°C
wind,
m/s
gust,
m/s
humid.,
%
clouds,
%
prec.,
mm/h
press.,
hPa
HPBL,
m
23 may, mon
mon2301:00+8ene22910 0.0 102735
04:00+7ne23900 0.0 102659
07:00+8ene288391 0.0 1026204
10:00+15e584843 0.0 10241050
13:00+19e5641100 0.0 10221395
16:00+19e4547100 0.0 10201389
19:00+16ene3865100 0.0 1020457
22:00+16ene51161100 0.0 1019715
24 may, tue
tue2401:00+15e3967100 0.0 1019557
04:00+13e2776100 0.2 1018332
07:00+12e3982100 0.2 1018372
10:00+16e5961100 0.0 1017628
13:00+19e5865100 0.1 10151105
16:00+17ene51195100 1.1 1011746
19:00+17ese31198100 6.3 1011825
22:00+17e51499100 3.1 1008913
25 may, wed
wed2501:00+18ne2799100 22.1 1004444
04:00+17wsw1299100 7.6 100573
07:00+17e1199100 9.3 100632
10:00+17ssw41197100 0.3 1008791
13:00+21ssw5980100 1.1 10091133
16:00+23sw586141 0.8 10091274
19:00+19sw3693100 3.4 1009168
22:00+16se229699 0.7 101043
26 may, thu
thu2601:00+15ssw239954 2.9 101198
04:00+14ssw1198100 0.1 101011
07:00+14e0098100 0.1 101143
10:00+18n2391100 0.1 1011437
13:00+20nne2387100 2.8 1010712
16:00+19nnw2395100 3.8 1009366
19:00+17nne4796100 7.1 1008360
22:00+15n3999100 6.6 1009428
27 may, fri
fri2701:00+15nnw3999100 8.9 1009447
04:00+14nnw41098100 0.8 1008444
07:00+14nnw41198100 1.0 1010518
10:00+15nnw4993100 0.2 1011651
13:00+19nnw566897 0.4 10111305
16:00+20n4761100 0.1 10101305
19:00+18nne267688 0.3 1011615
22:00+13ne22970 0.1 101236